{"data":{"norad_id":55747,"intl_designator":"2023-028G","name":"STARLINK-5539","alt_names":[],"object_type":"PAYLOAD","status":"ACTIVE","operator":null,"country":"US","launch_date":"2023-03-03","launch_site_code":"AFWTR","launch_vehicle":null,"mission":null,"orbit_class":"UNKNOWN","rcs_meters":null,"size_class":null,"mass_kg":null,"dimensions":null,"purposes":["comms"],"wikipedia_slug":null,"has_3d_model":false,"image_url":null,"decayed_at":null,"tle_current":{"epoch":"2026-09-20T22:00:03.000096Z","epoch_age_seconds":67071,"freshness":"FRESH","line1":"1 55747U 23028G   26263.91670139  .00060235  00000+0  41504-2 0  9999","line2":"2 55747  70.0009 112.2251 0004511 307.8420  45.5383 15.05502982  5768","mean_motion":15.05502982,"eccentricity":0.0004511,"inclination_deg":70.0009,"raan_deg":112.2251,"arg_perigee_deg":307.842,"mean_anomaly_deg":45.5383,"bstar":0.0041504,"rev_number":576,"period_min":95.649096495778,"perigee_km":546.83688834836,"apogee_km":553.08741940498,"semimajor_km":6928.0991538767,"source":"CELESTRAK","updated_at":"2026-09-21T09:00:33.312424Z"}}}